Regional Weather Roundup
Issued by NWS

Home | Current Version | Previous Version | Text Only | Print | Product List | Glossary Off
Versions: 1 2 3 4 5 6 7 8 9 10 11 12 13 14 15 16 17 18 19 20 21 22 23 24 25 26 27 28 29 30 31 32 33 34 35 36 37 38 39 40 41 42 43 44 45 46 47 48 49 50

000
ASUS44 KOUN 300710
RWROK

WEATHER ROUNDUP FOR OKLAHOMA
NATIONAL WEATHER SERVICE NORMAN OK
200 AM CDT THU OCT 30 2014

NOTE: "FAIR" INDICATES FEW OR NO CLOUDS BELOW 12,000 FEET WITH NO
      SIGNIFICANT WEATHER AND/OR OBSTRUCTIONS TO VISIBILITY.

OKZ001>007-009>012-014-015-017-300800-
NORTHWEST OKLAHOMA AND THE PANHANDLE

CITY           SKY/WX    TMP DP  RH WIND       PRES   REMARKS
GAGE           CLEAR     48  32  53 CALM      30.09S
ENID/WOODRING    N/A     45  37  76 S5        30.07F
$$

OKZ016-021>023-033>039-044-045-300800-
SOUTHWEST OKLAHOMA

CITY           SKY/WX    TMP DP  RH WIND       PRES   REMARKS
LAWTON/REGL    CLEAR     45  38  76 CALM      30.12S
FREDERICK      CLEAR     55  40  56 SE9       30.08F
CLINTON        CLEAR     56  36  47 S15       30.12S
HOBART         CLEAR     53  39  59 S8        30.11S
ALTUS AFB      CLEAR     48  39  71 E3        30.11S
$$

OKZ018>020-024>031-300800-
CENTRAL OKLAHOMA

CITY           SKY/WX    TMP DP  RH WIND       PRES   REMARKS
OKLAHOMA CITY  CLEAR     49  37  63 S5        30.11S
OKC/WILEY POST CLEAR     56  38  50 S12       30.11S
OKC/TINKER AFB CLEAR     51  38  59 S12       30.11S
STILLWATER     CLEAR     50  39  66 S7        30.10S
GUTHRIE        CLEAR     54  37  52 S8        30.10F
$$

OKZ008-013-054>072-300800-
NORTHEAST OKLAHOMA

CITY           SKY/WX    TMP DP  RH WIND       PRES   REMARKS
TULSA          CLEAR     55  42  61 S9        30.09F
TULSA/JONES    CLEAR     45  43  93 CALM      30.12F
PONCA CITY     CLEAR     56  38  50 S7        30.08F
BARTLESVILLE   CLEAR     39  39 100 CALM      30.11F
MUSKOGEE       CLEAR     47  45  93 S7        30.14S
$$

OKZ032-040>043-046>053-073>077-300800-
SOUTH CENTRAL/SOUTHEAST OKLAHOMA

CITY           SKY/WX    TMP DP  RH WIND       PRES   REMARKS
ARDMORE/DWNTWN CLEAR     48  41  76 CALM      30.13S
MCALESTER      CLEAR     50  42  74 CALM      30.14F
$$




USA.gov is the U.S. government's official web portal to all federal, state and local government web resources and services.